DW6561 Weather Reports


time (UTC)temp
C
wind
direction
speed
KPH
gust
KPH
rain 1hr
cm
rain 24hr
cm
rain mn
cm
humidity
%
barometer
mb
20260509101514 11 181 3.2 16.1 0.00 0.00 0.00 70 1020.0
20260509100016 11 153 4.8 14.5 0.00 0.00 0.00 69 1020.2
20260509094524 11 139 0.0 9.7 0.00 0.00 0.00 66 1020.0
20260509093015 12 165 4.8 11.3 0.00 0.00 0.00 62 1020.1
20260509091514 12 92 1.6 4.8 0.00 0.00 0.00 60 1019.9
20260509090044 12 189 6.4 16.1 0.00 0.00 0.00 62 1019.8
20260509084527 13 230 1.6 11.3 0.00 0.00 0.00 57 1019.6
20260509083040 13 155 4.8 17.7 0.00 0.00 0.00 59 1019.6
20260509081528 13 241 1.6 8.0 0.00 0.00 0.00 57 1019.3
20260509080028 12 180 8.0 17.7 0.00 0.00 0.00 60 1019.3
20260509074533 13 184 1.6 14.5 0.00 0.00 0.00 56 1019.3
20260509073025 13 163 9.7 16.1 0.00 0.00 0.00 55 1019.4
20260509071526 14 197 1.6 8.0 0.00 0.00 0.00 51 1019.1
20260509070012 14 204 8.0 16.1 0.00 0.00 0.00 51 1018.8
20260509064506 15 125 6.4 16.1 0.00 0.00 0.00 46 1018.9
20260509063021 14 146 4.8 14.5 0.00 0.00 0.00 44 1018.8
20260509061512 15 180 3.2 8.0 0.00 0.00 0.00 43 1018.8
20260509060015 15 200 1.6 6.4 0.00 0.00 0.00 41 1018.5
20260509054518 15 209 0.0 8.0 0.00 0.00 0.00 41 1018.4
20260509053024 15 208 0.0 6.4 0.00 0.00 0.00 40 1018.3
20260509051513 16 181 0.0 6.4 0.00 0.00 0.00 39 1018.1
20260509050033 16 157 3.2 11.3 0.00 0.00 0.00 40 1018.0
20260509044517 16 241 0.0 0.0 0.00 0.00 0.00 40 1017.7
20260509043032 16 161 0.0 4.8 0.00 0.00 0.00 40 1017.7
20260509041522 17 213 0.0 8.0 0.00 0.00 0.00 39 1017.5
20260509034513 18 195 3.2 6.4 0.00 0.00 0.00 33 1016.8
20260509033029 20 166 0.0 6.4 0.00 0.00 0.00 25 1016.7
20260509031527 20 178 0.0 3.2 0.00 0.00 0.00 24 1016.3
20260509030028 21 24 0.0 3.2 0.00 0.00 0.00 22 1016.0
20260509024518 21 305 0.0 4.8 0.00 0.00 0.00 23 1015.8
20260509023024 22 331 0.0 3.2 0.00 0.00 0.00 25 1015.6
20260509021519 22 316 0.0 11.3 0.00 0.00 0.00 30 1015.4
20260509020022 22 332 0.0 16.1 0.00 0.00 0.00 32 1015.3
20260509014527 22 171 3.2 17.7 0.00 0.00 0.00 30 1014.8
20260509013028 23 182 4.8 24.1 0.00 0.00 0.00 29 1014.7
20260509011524 23 213 6.4 20.9 0.00 0.00 0.00 28 1014.7
20260509010013 23 211 6.4 27.4 0.00 0.00 0.00 27 1014.7
20260509004505 24 352 6.4 24.1 0.00 0.00 0.00 26 1014.5
20260509003004 24 199 4.8 14.5 0.00 0.00 0.00 24 1014.4
20260509001504 24 169 11.3 25.7 0.00 0.00 0.00 24 1014.3
20260509000006 24 195 14.5 33.8 0.00 0.00 0.00 24 1014.3
20260508234507 24 164 11.3 30.6 0.00 0.00 0.00 24 1014.3
20260508231508 24 191 14.5 25.7 0.00 0.00 0.00 21 1014.6
20260508230005 25 167 6.4 17.7 0.00 0.00 0.00 22 1014.7
20260508224520 25 134 3.2 17.7 0.00 0.00 0.00 23 1014.7
20260508223011 24 186 3.2 17.7 0.00 0.00 0.00 22 1014.7
20260508221516 24 239 3.2 16.1 0.00 0.00 0.00 24 1014.8
20260508220009 24 189 9.7 27.4 0.00 0.00 0.00 22 1014.7
20260508213007 23 220 6.4 29.0 0.00 0.00 0.00 24 1015.0
20260508211523 23 350 6.4 19.3 0.00 0.00 0.00 24 1015.0
20260508210017 23 333 8.0 22.5 0.00 0.00 0.00 25 1015.0
20260508204522 22 261 4.8 22.5 0.00 0.00 0.00 29 1015.1
20260508203007 21 303 3.2 30.6 0.00 0.00 0.00 28 1015.0
20260508201515 21 178 6.4 19.3 0.00 0.00 0.00 26 1015.0
20260508200017 22 18 8.0 22.5 0.00 0.00 0.00 25 1015.1
20260508194520 22 65 9.7 25.7 0.00 0.00 0.00 24 1015.0
20260508193025 22 149 4.8 24.1 0.00 0.00 0.00 28 1014.9
20260508191508 22 149 1.6 20.9 0.00 0.00 0.00 29 1014.9
20260508190017 22 159 4.8 17.7 0.00 0.00 0.00 31 1015.1
20260508184513 22 205 3.2 12.9 0.00 0.00 0.00 35 1015.3
20260508183020 21 123 8.0 22.5 0.00 0.00 0.00 31 1015.4
20260508181524 21 192 9.7 19.3 0.00 0.00 0.00 35 1015.4
20260508180007 19 270 6.4 19.3 0.00 0.00 0.00 43 1015.5
20260508174514 18 150 6.4 19.3 0.00 0.00 0.00 47 1015.8
20260508173026 17 126 6.4 19.3 0.00 0.00 0.00 51 1015.7
20260508171531 17 153 9.7 24.1 0.00 0.00 0.00 50 1015.7
20260508170010 17 196 9.7 22.5 0.00 0.00 0.00 50 1015.5
20260508164529 17 176 6.4 24.1 0.00 0.00 0.00 50 1015.4
20260508163026 16 187 11.3 27.4 0.00 0.00 0.00 50 1015.2
20260508161531 16 135 9.7 22.5 0.00 0.00 0.00 51 1015.3
20260508160004 16 140 11.3 22.5 0.00 0.00 0.00 51 1015.0
20260508154503 15 171 11.3 25.7 0.00 0.00 0.00 52 1015.0
20260508153003 15 176 12.9 22.5 0.00 0.00 0.00 51 1014.8
20260508150018 14 184 9.7 24.1 0.00 0.00 0.00 53 1014.7
20260508143018 13 213 14.5 27.4 0.00 0.00 0.00 53 1014.2
20260508141502 13 214 12.9 27.4 0.00 0.00 0.00 53 1014.2
20260508134503 13 161 12.9 27.4 0.00 0.00 0.00 53 1013.9
20260508133011 13 220 11.3 33.8 0.00 0.00 0.00 53 1013.7
20260508130005 13 167 12.9 29.0 0.00 0.00 0.00 49 1013.6
20260508124512 13 197 12.9 25.7 0.00 0.00 0.00 49 1013.6
20260508123007 13 173 11.3 29.0 0.00 0.00 0.00 49 1013.6
20260508121516 12 232 12.9 24.1 0.00 0.00 0.00 50 1013.4
20260508120023 12 174 11.3 25.7 0.00 0.00 0.00 53 1013.6
20260508114521 12 155 12.9 27.4 0.00 0.00 0.00 47 1013.4
20260508111515 13 209 11.3 32.2 0.00 0.00 0.00 47 1013.3
20260508110006 13 168 11.3 30.6 0.00 0.00 0.00 46 1013.3
20260508103008 13 202 11.3 24.1 0.00 0.00 0.00 43 1013.2